sat.trackr.live / text

‹ back to catalog

STARLINK-3753

NORAD 52292 · 2022-041AH

PAYLOAD ACTIVE UNKNOWN

§ Identity

Operator
Country
US
Launch date
2022-04-21
Launch site
AFETR
Launch vehicle
Mass (kg)
RCS (m²)

Purposes: comms

External: N2YO · Heavens-Above · Gunter

§ Orbital elements

Epoch: 2026-09-19T17:17:59.904672Z

Period
93.85 min
Inclination
53.1608°
Eccentricity
0.0001124
Mean motion
15.34393969 rev/d
Perigee alt
462.0 km
Apogee alt
463.5 km
Semi-major
6,840.9 km
B*
1.1398e-5
RAAN
295.0158°
Arg perigee
37.4993°
Mean anomaly
322.6088°
Rev number
24,397

§ Raw data

STARLINK-37531 52292U 22041AH  26262.72083223  .00000009  00000+0  11398-4 0  99982 52292  53.1608 295.0158 0001124  37.4993 322.6088 15.34393969243974

JSON: /api/v1/satellites/52292 · /tle

For live sub-satellite position, see the globe view (requires WebGL).

§ Visibility from observer

Set your observer location to see the next 7 days of passes ≥ 10°. The values pass through the URL so the page stays shareable.

No JS? Fill the form by hand. The geolocation button needs JavaScript.